sat.trackr.live / text

‹ back to catalog

STARLINK-34191

NORAD 64176 · 2025-113G

PAYLOAD ACTIVE UNKNOWN

§ Identity

Operator
Country
US
Launch date
2025-05-28
Launch site
AFETR
Launch vehicle
Mass (kg)
RCS (m²)

Purposes: comms

External: N2YO · Heavens-Above · Gunter

§ Orbital elements

Epoch: 2026-09-20T16:51:31.810464Z

Period
93.85 min
Inclination
53.1596°
Eccentricity
0.0001047
Mean motion
15.34400838 rev/d
Perigee alt
462.0 km
Apogee alt
463.4 km
Semi-major
6,840.8 km
B*
2.0806e-4
RAAN
260.9747°
Arg perigee
83.8992°
Mean anomaly
276.2130°
Rev number
7,498

§ Raw data

STARLINK-341911 64176U 25113G   26263.70245151  .00006660  00000+0  20806-3 0  99962 64176  53.1596 260.9747 0001047  83.8992 276.2130 15.34400838 74986

JSON: /api/v1/satellites/64176 · /tle

For live sub-satellite position, see the globe view (requires WebGL).

§ Visibility from observer

Set your observer location to see the next 7 days of passes ≥ 10°. The values pass through the URL so the page stays shareable.

No JS? Fill the form by hand. The geolocation button needs JavaScript.